Flag for U.S.A. Weather past 2 weeks in New Bedford, Massachusetts, U.S.A.

Now
45 °F

Clear.


Feels Like: 45 °F
Forecast: 42 / 67 °F
Wind: No wind

Location: New Bedford Regional Airport

Current Time: Sep 23, 2014 at 3:18:30 AM

Latest Report: Sep 23, 2014 at 2:53 AM


Visibility: 10 mi

Pressure: 30.13 "Hg

Humidity: 86%

Dew point: 41 °F

Location of New BedfordLocation

Historic Weather in New Bedford — Graph

°F

New Bedford temperature yesterday

Maximum temperature yesterday: 75 °F (at 1:53 PM)
Minimum temperature yesterday: 51 °F (at 11:53 PM)
Average temperature yesterday: 66 °F

Past Weeks' High & Low Weather Summary

 TemperatureHumidityPressure
High78 °F (Sep 11, 2:53 PM)100% (Sep 8, 4:53 AM)30.42 "Hg (Sep 8, 4:53 AM)
Low34 °F (Sep 20, 2:53 AM)32% (Sep 17, 2:53 PM)29.55 "Hg (Sep 22, 12:53 AM)
Average61 °F76%30.08 "Hg
* Reported Sep 8 1:53 AM — Sep 23 1:53 AM, New Bedford, Weather by CustomWeather, © 2014

Note: Actual official high and low records may vary slightly from our data, if they occured in-between our weather recording intervals... More about our weather records

Advertising

New Bedford weather history for previous 24 hours

 ConditionsComfort  
Time TempWeatherWind HumidityBarometerVisibility
1:53 AM
Sep 23
47 °FClear.3 mph77%30.12 "Hg10 mi
12:53 AM48 °FClear.5 mph71%30.11 "Hg10 mi
11:53 PM
Sep 22
51 °FClear.3 mph63%30.09 "Hg10 mi
10:53 PM53 °FClear.7 mph59%30.07 "Hg10 mi
9:53 PM55 °FClear.10 mph57%30.04 "Hg10 mi
8:53 PM58 °FClear.8 mph58%29.99 "Hg10 mi
7:53 PM59 °FClear.5 mph60%29.95 "Hg10 mi
6:53 PM62 °FSunny.6 mph52%29.91 "Hg10 mi
5:53 PM67 °FSunny.12 mph44%29.88 "Hg10 mi
4:53 PM70 °FSunny.13 mph39%29.84 "Hg10 mi
3:53 PM73 °FSunny.16 mph37%29.81 "Hg10 mi
2:53 PM74 °FSunny.13 mph37%29.79 "Hg10 mi
1:53 PM75 °FSunny.16 mph39%29.76 "Hg10 mi
12:53 PM74 °FSunny.21 mph45%29.75 "Hg10 mi
11:53 AM73 °FSunny.17 mph50%29.75 "Hg10 mi
10:53 AM72 °FSunny.17 mph52%29.75 "Hg10 mi
9:53 AM69 °FSunny.17 mph59%29.73 "Hg10 mi
8:53 AM68 °FSunny.13 mph63%29.72 "Hg10 mi
7:53 AM65 °FSunny.8 mph78%29.69 "Hg10 mi
6:53 AM63 °FClear.8 mph90%29.66 "Hg10 mi
5:53 AM66 °FClear.9 mph93%29.62 "Hg10 mi
4:53 AM67 °FClear.7 mph93%29.58 "Hg10 mi
3:53 AM68 °FPassing clouds.10 mph93%29.57 "Hg10 mi
Weather by CustomWeather, © 2014

See weather overviewHow to use our weather pages